Regional Weather Roundup
Issued by NWS

Home | Current Version | Previous Version | Text Only | Print | Product List | Glossary Off
Versions: 1 2 3 4 5 6 7 8 9 10 11 12 13 14 15 16 17 18 19 20 21 22 23 24 25 26 27 28 29 30 31 32 33 34 35 36 37 38 39 40 41 42 43 44 45 46 47 48 49 50

980
ASUS45 KSLC 200110
RWRUT

UTAH REGIONAL WEATHER ROUNDUP
NATIONAL WEATHER SERVICE SALT LAKE CITY UT
600 PM MST SUN NOV 19 2017

UTZ001>011-023>025-200200-

NORTHERN UTAH

CITY           SKY/WX    TMP DP  RH WIND       PRES   REMARKS
BRIGHAM CITY   MOCLDY    34  26  72 CALM      30.12F
HILL AFB       MOCLDY    34  22  63 E12       30.11F WCI  25
LOGAN          MOCLDY    34  23  64 SE5       30.12F WCI  30
OGDEN          MOCLDY    35  26  69 CALM      30.11F
SALT LAKE CITY MOCLDY    40  30  67 NW3       30.12F
TOOELE VALLEY  MOCLDY    30  27  86 S3        30.14F
WENDOVER       CLOUDY    35  24  64 CALM      30.13F
HEBER CITY       N/A     30  23  74 E6        30.11R WCI  24
WEST JORDAN    MOCLDY    36  28  74 W3        30.14S

$$

UTZ011>015-024>027-200200-

CENTRAL/NORTHEAST UTAH

CITY           SKY/WX    TMP DP  RH WIND       PRES   REMARKS
PROVO AIRPORT  MOCLDY    37  26  64 CALM      30.14S
MOAB/CANYONLAN PTCLDY    36   5  27 NW8       30.19R WCI  30
DELTA          MOCLDY    36  19  51 W5        30.12S WCI  32
PRICE          MOCLDY    32   7  35 CALM      30.19R
RICHFIELD      CLEAR     32  27  80 CALM      30.14S
ROOSEVELT      CLOUDY    30  10  43 W6        30.18R WCI  24
VERNAL         CLOUDY    28  11  48 W6        30.15R WCI  22

$$

UTZ013>016-019>022-027-200200-

SOUTHERN UTAH

CITY           SKY/WX    TMP DP  RH WIND       PRES   REMARKS
BRYCE CANYON   MOCLDY    28   3  34 CALM      30.20F
CEDAR CITY     MOCLDY    47   3  16 S10       30.11R
MILFORD        MOCLDY    41  19  41 CALM      30.08F
ST GEORGE      MOCLDY    54   9  16 CALM      30.08S
HANKSVILLE     PTCLDY    37   7  28 W3        30.22F
KANAB          CLEAR     41   9  26 E8        30.18S
BLANDING         N/A     35   5  28 CALM      30.26R

$$

REGIONAL REPORTS     COLORADO/ARIZONA

CITY           SKY/WX    TMP DP  RH WIND       PRES   REMARKS
CRAIG, CO      CLOUDY    25  17  72 SW5       30.13S WCI  19
GRAND JUNCTION CLEAR     32  14  47 CALM      30.18F
RIFLE, CO      CLOUDY    32  24  72 S5        30.19S WCI  27
MONTROSE, CO   CLOUDY    36  17  46 N3        30.21R
CORTEZ, CO     CLOUDY    36  15  42 SW3       30.19S
COLORADO CITY    N/A     43   9  24 SE8       30.15S
PAGE, AZ       PTCLDY    44  15  31 CALM      30.18R
GRAND CANYON   PTCLDY    34   3  27 CALM      30.19S
KINGMAN, AZ    PTCLDY    52   6  15 CALM      30.08R
FLAGSTAFF, AZ  PTCLDY    36   3  25 CALM      30.20R

$$

REGIONAL REPORTS    NEVADA/IDAHO/WYOMING

CITY           SKY/WX    TMP DP  RH WIND       PRES   REMARKS
LAS VEGAS, NV  MOCLDY    59  11  15 CALM      30.06S
ELY, NY        CLOUDY    41   1  18 NE9       30.11R
ELKO, NV       CLOUDY    36  27  69 CALM      30.08S
POCATELLO, ID  CLOUDY    34  26  72 N9        30.07F WCI  27
BURLEY, ID     CLOUDY    37  30  75 SE3       30.02F
FORT BRIDGER,    N/A     19  12  73 S6        30.14R WCI  11
EVANSTON, WY   CLOUDY    28  19  69 SW6       30.12R WCI  22
ROCK SPRINGS,  CLOUDY    26  14  60 SW7       30.10S WCI  18

$$




USA.gov is the U.S. government's official web portal to all federal, state and local government web resources and services.